Tracking 33068 objects as of 24-Jan-2026
HD Live streaming from Space Station
objects crossing your sky now

COSMOS 1375 DEB

Track COSMOS 1375 DEB now!
10-day predictions


NORAD ID: 16383
Int'l Code: 1982-055X
Perigee: 955.8 km
Apogee: 1,013.3 km
Inclination: 65.8 °
Period: 104.6 minutes
Semi major axis: 7355 km
RCS: 0.1937 m2 (medium)
Launch date: June 6, 1982
Source: Commonwealth of Independent States (former USSR) (CIS)
Launch site: PLESETSK MISSILE AND SPACE COMPLEX (PKMTR)

Note: This is SATELLITE DEBRIS
Your satellite tracking list
Your tracking list is empty




NASA's NSSDC Master Catalog

Two Line Element Set (TLE):
1 16383U 82055X   26024.13370580  .00000729  00000-0  82617-3 0  9997
2 16383  65.8290 276.2615 0039111  65.5654   9.7293 13.76191672 15298
Source of the keplerian elements: AFSPC